Location: Lansingburgh
(42.7845°N, 73.6696°W)
Time: 04:46:26
(UTC+00:00)

Cosmos 1953 Rocket - Pass Details

Date: 24 January 2020
Orbit: 604 x 635 km, 82.5° (Epoch: 16 February)

Event Time Altitude Azimuth Distance (km) Brightness Sun altitude
Rises 22:57:51 0° 180° (S) 2,916 7.2 -11.3°
Reaches altitude 10° 23:00:05 10° 177° (S) 2,014 6.4 -11.7°
Maximum altitude 23:04:31 68° 96° (E) 688 3.5 -12.5°
Drops below altitude 10° 23:08:59 10° 13° (NNE) 2,029 5.9 -13.3°
Sets 23:11:15 0° 11° (NNE) 2,939 6.8 -13.7°
